Preview of NWS' New Version of Forecast
This preview is not operational and should not be used for support decisions.

Regional Weather Roundup (RWR)

Issued by Gray - Portland, ME (GYX)

                            
658 
ASUS41 KGYX 220010
RWRGYX
WEATHER ROUNDUP FOR MAINE AND NEW HAMPSHIRE
NATIONAL WEATHER SERVICE GRAY ME
800 PM EDT SAT APR 21 2018

MEZ002-005-006-010-012-015-018-020-021-024-026-027-029-220100-
MAINE
  
CITY           SKY/WX    TMP DP  RH WIND       PRES   REMARKS
PORTLAND       FAIR      49  21  33 N10       30.24R                  
6HR MIN TEMP:  49; 6HR MAX TEMP:  57;                                

SANFORD        FAIR      49  20  31 NW6       30.24R                  
BAR HARBOR     CLOUDY    46  22  38 NW5       30.20R                  
WISCASSET      CLOUDY    49  22  34 VRB5      30.24R                  
6HR MIN TEMP:  49; 6HR MAX TEMP:  54;                                

ROCKLAND       CLOUDY    49  22  34 VRB7      30.21R                  
FRYEBURG       FAIR      46  22  38 NW5       30.25R                  
6HR MIN TEMP:  46; 6HR MAX TEMP:  56;                                

LEWISTONAUBURN FAIR      47  23  38 NW8       30.24R                  
AUGUSTA        MOCLDY    47  21  35 NW9       30.23R                  
6HR MIN TEMP:  47; 6HR MAX TEMP:  53;                                

WATERVILLE     MOCLDY    45  21  38 NW6       30.20R                  
BANGOR         FAIR      45  20  36 NW8       30.20R                  
6HR MIN TEMP:  44; 6HR MAX TEMP:  52;                                

GREENVILLE       N/A     37  23  56 NW7       30.15R                  
6HR MIN TEMP:  37; 6HR MAX TEMP:  45;                                

MILLINOCKET    MOCLDY    43  21  41 NW3       30.17R                  
6HR MIN TEMP:  43; 6HR MAX TEMP:  51;                                

HOULTON        FAIR      42  21  43 NW5       30.13R                  
6HR MIN TEMP:  42; 6HR MAX TEMP:  47;                                

PRESQUE ISLE   FAIR      41  20  43 NW5       30.15R                  
6HR MIN TEMP:  41; 6HR MAX TEMP:  45;                                

FRENCHVILLE    FAIR      40  19  43 NW9       30.12R                  
6HR MIN TEMP:  40; 6HR MAX TEMP:  44;                                

CARIBOU        CLOUDY    40  21  46 NW10G17   30.12R                  
6HR MIN TEMP:  40; 6HR MAX TEMP:  44;                                

$$

NHZ002-005-008-009-011-012-014-220100-
NEW HAMPSHIRE
  
CITY           SKY/WX    TMP DP  RH WIND       PRES   REMARKS
PORTSMOUTH     PTCLDY    50  18  28 N12       30.23R                  
ROCHESTER      FAIR      49  19  30 NW6       30.23R                  
6HR MIN TEMP:  48; 6HR MAX TEMP:  57;                                

NASHUA         FAIR      53  19  26 NW7       30.25R                  
MANCHESTER     FAIR      56  15  20 N10       30.23R                  
6HR MIN TEMP:  56; 6HR MAX TEMP:  61;                                

CONCORD        FAIR      50  17  27 N8        30.25R                  
6HR MIN TEMP:  50; 6HR MAX TEMP:  58;                                

LACONIA        FAIR      48  19  31 NW6       30.26R                  
PLYMOUTH       FAIR      47  20  33 MISG      30.25R                  
BERLIN         FAIR      37  25  61 CALM      30.23R                  
6HR MIN TEMP:  37; 6HR MAX TEMP:  50;                                

WHITEFIELD     FAIR      42  22  44 CALM      30.25R                  
6HR MIN TEMP:  42; 6HR MAX TEMP:  52;                                

JAFFREY        FAIR      47  25  42 CALM      30.24R                  
6HR MIN TEMP:  47; 6HR MAX TEMP:  56;                                

KEENE          FAIR      49  15  25 NW6       30.26R                  
LEBANON        FAIR      49  16  26 N6        30.26R                  
6HR MIN TEMP:  49; 6HR MAX TEMP:  57;                                

MT WASHINGTON  MOCLDY    18  16  93 W46G54      N/A  WCI  -5          
6HR MIN TEMP:  17; 6HR MAX TEMP:  20;                                

$$

VTZ005-007-008-220100-
VERMONT
  
CITY           SKY/WX    TMP DP  RH WIND       PRES   REMARKS
ST JOHNSBURY     N/A     45  21  38 MISG      30.25R                  
MONTPELIER     FAIR      42  20  41 NW5       30.30R                  
BURLINGTON     FAIR      50  18  28 N9        30.29R                  
$$

MAZ007-012-024-CTZ003-RIZ002-NYZ038-NYZ072-220100-
SOUTHERN NEW ENGLAND AND NY
  
CITY           SKY/WX    TMP DP  RH WIND       PRES   REMARKS
BOSTON         FAIR      56  18  22 N12       30.23R                  
WORCESTER      FAIR      51  14  22 NW8       30.23R                  
NANTUCKET      FAIR      42  37  82 S7        30.27R                  
PROVIDENCE     FAIR      56  21  25 NW8       30.24R                  
HARTFORD       FAIR      54  19  25 W10       30.26R                  
ALBANY         FAIR      51  17  26 W12G21    30.30R                  
NEW YORK CITY  MOCLDY    59  20  22 N15       30.28R                  
$$

ANZ081-ANZ082-ANZ150-NHZ014-MEZ023>029-220100-
COASTAL MARINE OBSERVATIONS
  
STATION/POSITION TIME  TEMP    WIND        PRES    WAVE
                       AIR SEA DIR/SP/G            HT/PER
                 (UTC) (F)     (DEG/KT/KT) (MB)    (FT/S)
MOUNT DESERT ROC 0000   42     240/ 15/ 16 1022.7R
MATINICUS ROCK   0000   44     290/ 11/ 11 1022.6R
ISLE OF SHOALS   0000   53     330/ 17/ 19 1023.5R
JEFFREYS LEDGE   2336      42                N/A     2/10
CASHES LEDGE BUO 2350   41 42              1023.5R   2/ 9
$$

.............KEY..............
   WCI - WIND CHILL
   TC  - TEMPERATURE IN CELSIUS
   VSB - VISIBILITY IN MILES
   HX  - HEAT INDEX
   FAIR- INDICATES FEW OR NO CLOUDS BELOW 12,000 FT, WITH NO 
         SIGNIFICANT WEATHER AND/OR OBSTRUCTIONS TO VISIBILITY.